TimeEDT,TemperatureF,Dew PointF,Humidity,Sea Level PressureIn,VisibilityMPH,Wind Direction,Wind SpeedMPH,Gust SpeedMPH,PrecipitationIn,Events,Conditions,WindDirDegrees,DateUTC
12:53 AM,37.9,30.0,73,30.40,10.0,Calm,Calm,-,N/A,,Clear,0,2013-04-22 04:53:00
1:53 AM,37.0,30.9,79,30.38,10.0,Calm,Calm,-,N/A,,Clear,0,2013-04-22 05:53:00
2:53 AM,36.0,28.9,76,30.37,10.0,Calm,Calm,-,N/A,,Clear,0,2013-04-22 06:53:00
3:53 AM,36.0,30.0,79,30.35,10.0,Calm,Calm,-,N/A,,Clear,0,2013-04-22 07:53:00
4:53 AM,35.1,32.0,89,30.33,10.0,Calm,Calm,-,N/A,,Clear,0,2013-04-22 08:53:00
5:53 AM,34.0,28.9,82,30.33,10.0,Calm,Calm,-,N/A,,Clear,0,2013-04-22 09:53:00
6:53 AM,35.1,30.0,82,30.34,10.0,Calm,Calm,-,N/A,,Clear,0,2013-04-22 10:53:00
7:53 AM,37.0,30.9,79,30.35,10.0,Calm,Calm,-,N/A,,Clear,0,2013-04-22 11:53:00
8:53 AM,46.0,30.0,54,30.35,10.0,East,4.6,-,N/A,,Clear,80,2013-04-22 12:53:00
9:53 AM,51.1,30.9,46,30.34,10.0,East,4.6,-,N/A,,Clear,90,2013-04-22 13:53:00
10:53 AM,55.9,33.1,42,30.33,10.0,Calm,Calm,-,N/A,,Clear,0,2013-04-22 14:53:00
12:53 PM,63.0,37.0,38,30.30,10.0,Calm,Calm,-,N/A,,Clear,0,2013-04-22 16:53:00
1:53 PM,66.0,35.1,32,30.27,10.0,Calm,Calm,-,N/A,,Clear,0,2013-04-22 17:53:00
2:53 PM,70.0,35.1,28,30.23,10.0,SSW,4.6,-,N/A,,Clear,200,2013-04-22 18:53:00
3:53 PM,69.1,35.1,29,30.21,10.0,South,9.2,-,N/A,,Clear,190,2013-04-22 19:53:00
4:53 PM,71.1,35.1,27,30.19,10.0,SSW,5.8,-,N/A,,Clear,200,2013-04-22 20:53:00
5:53 PM,69.1,35.1,29,30.17,10.0,Variable,3.5,-,N/A,,Clear,0,2013-04-22 21:53:00
6:53 PM,70.0,37.0,30,30.16,10.0,South,3.5,-,N/A,,Clear,190,2013-04-22 22:53:00
7:53 PM,68.0,37.9,33,30.15,10.0,Calm,Calm,-,N/A,,Clear,0,2013-04-22 23:53:00
8:53 PM,57.0,42.1,57,30.15,10.0,Calm,Calm,-,N/A,,Clear,0,2013-04-23 00:53:00
9:53 PM,53.1,42.1,66,30.17,10.0,Calm,Calm,-,N/A,,Clear,0,2013-04-23 01:53:00
10:53 PM,51.1,41.0,68,30.16,10.0,East,3.5,-,N/A,,Clear,80,2013-04-23 02:53:00
11:53 PM,48.9,41.0,74,30.16,10.0,Calm,Calm,-,N/A,,Clear,0,2013-04-23 03:53:00